Location: Helstorf
(52.5868°N, 9.5862°E)
Time: 08:33:38
(UTC+00:00)

ARIANE 5 R/B - Pass Details

Date: 15 May 2026
Orbit: 614 x 648 km, 98.0° (Epoch: 14 September)

Event Time Altitude Azimuth Distance (km) Brightness Sun altitude
Exits shadow 22:52:41 35° 199° (SSW) 1,036 3.2 -18.2°
Maximum altitude 22:54:18 56° 259° (W) 765 2.9 -18.2°
Drops below altitude 10° 22:58:43 10° 338° (NNW) 2,054 6.4 -18.2°
Sets 23:00:59 0° 343° (NNW) 2,971 7.6 -18.3°
